Time,TemperatureF,DewpointF,PressureIn,WindDirection,WindDirectionDegrees,WindSpeedMPH,WindSpeedGustMPH,Humidity,HourlyPrecipIn,Conditions,Clouds,dailyrainin,SolarRadiationWatts/m^2,SoftwareType,DateUTC
2013-01-26 00:12:00,61.1,48.0,30.00,NE,42,0.0,2.0,63,0.00,,,0.00,0,weatherlink.com 1.10,2013-01-26 07:12:00,
2013-01-26 00:27:00,60.9,48.0,29.99,NE,42,0.0,1.0,62,0.00,,,0.00,0,weatherlink.com 1.10,2013-01-26 07:27:00,
2013-01-26 00:42:00,60.5,48.0,29.99,NE,42,0.0,1.0,64,0.00,,,0.00,0,weatherlink.com 1.10,2013-01-26 07:42:00,
2013-01-26 00:57:00,60.3,48.0,29.98,NE,42,0.0,4.0,64,0.00,,,0.00,0,weatherlink.com 1.10,2013-01-26 07:57:00,
2013-01-26 01:12:00,60.9,48.0,29.98,NE,42,1.0,3.0,62,0.00,,,0.00,0,weatherlink.com 1.10,2013-01-26 08:12:00,
2013-01-26 01:27:00,61.1,48.0,29.98,NE,42,0.0,2.0,63,0.00,,,0.00,0,weatherlink.com 1.10,2013-01-26 08:27:00,
2013-01-26 01:42:00,61.1,47.0,29.98,NE,42,1.0,2.0,61,0.00,,,0.00,0,weatherlink.com 1.10,2013-01-26 08:42:00,
2013-01-26 01:57:00,62.0,48.0,29.97,NE,42,0.0,2.0,60,0.00,,,0.00,0,weatherlink.com 1.10,2013-01-26 08:57:00,
2013-01-26 02:12:00,62.6,47.0,29.97,NE,42,0.0,2.0,58,0.00,,,0.00,0,weatherlink.com 1.10,2013-01-26 09:12:00,
2013-01-26 02:27:00,63.0,47.0,29.96,NE,42,0.0,1.0,57,0.00,,,0.00,0,weatherlink.com 1.10,2013-01-26 09:27:00,
2013-01-26 02:42:00,63.6,48.0,29.96,NE,42,0.0,2.0,57,0.00,,,0.00,0,weatherlink.com 1.10,2013-01-26 09:42:00,
2013-01-26 02:57:00,63.8,48.0,29.95,NE,42,0.0,1.0,57,0.00,,,0.00,0,weatherlink.com 1.10,2013-01-26 09:57:00,
2013-01-26 03:12:00,63.5,50.0,29.95,NE,42,1.0,3.0,62,0.00,,,0.00,0,weatherlink.com 1.10,2013-01-26 10:12:00,
2013-01-26 03:27:00,61.8,52.0,29.94,NE,42,1.0,3.0,70,0.00,,,0.00,0,weatherlink.com 1.10,2013-01-26 10:27:00,
2013-01-26 03:42:00,61.4,52.0,29.94,NE,41,1.0,4.0,71,0.01,,,0.01,0,weatherlink.com 1.10,2013-01-26 10:42:00,
2013-01-26 03:57:00,61.4,52.0,29.93,NE,41,0.0,4.0,70,0.01,,,0.01,0,weatherlink.com 1.10,2013-01-26 10:57:00,
2013-01-26 04:12:00,61.2,52.0,29.94,NNE,23,1.0,6.0,73,0.01,,,0.01,0,weatherlink.com 1.10,2013-01-26 11:12:00,
2013-01-26 04:28:00,60.3,53.0,29.94,NNE,22,2.0,5.0,77,0.01,,,0.01,0,weatherlink.com 1.10,2013-01-26 11:28:00,
2013-01-26 04:42:00,58.9,54.0,29.93,NNE,22,2.0,3.0,83,0.02,,,0.03,0,weatherlink.com 1.10,2013-01-26 11:42:00,
2013-01-26 04:57:00,58.0,54.0,29.93,NNE,21,2.0,5.0,86,0.04,,,0.05,0,weatherlink.com 1.10,2013-01-26 11:57:00,
2013-01-26 05:12:00,57.6,54.0,29.93,NNE,21,3.0,4.0,89,0.06,,,0.07,0,weatherlink.com 1.10,2013-01-26 12:12:00,
2013-01-26 05:27:00,57.4,55.0,29.93,NNE,14,1.0,6.0,90,0.07,,,0.08,0,weatherlink.com 1.10,2013-01-26 12:27:00,
2013-01-26 05:42:00,57.5,54.0,29.94,NNE,13,0.0,4.0,89,0.06,,,0.09,0,weatherlink.com 1.10,2013-01-26 12:42:00,
2013-01-26 05:58:00,57.5,55.0,29.93,NNE,13,1.0,3.0,90,0.05,,,0.10,0,weatherlink.com 1.10,2013-01-26 12:58:00,
2013-01-26 06:13:00,57.4,55.0,29.94,NNE,13,1.0,2.0,91,0.03,,,0.10,0,weatherlink.com 1.10,2013-01-26 13:13:00,
2013-01-26 06:27:00,57.3,55.0,29.95,NNE,13,1.0,2.0,91,0.03,,,0.11,0,weatherlink.com 1.10,2013-01-26 13:27:00,
2013-01-26 06:43:00,57.2,55.0,29.95,NNE,13,0.0,2.0,92,0.02,,,0.11,0,weatherlink.com 1.10,2013-01-26 13:43:00,
2013-01-26 06:58:00,57.1,55.0,29.95,NNE,14,2.0,5.0,93,0.02,,,0.12,0,weatherlink.com 1.10,2013-01-26 13:58:00,
2013-01-26 07:12:00,57.1,55.0,29.95,NNE,14,2.0,4.0,93,0.03,,,0.13,0,weatherlink.com 1.10,2013-01-26 14:12:00,
2013-01-26 07:27:00,57.1,55.0,29.94,NNE,14,2.0,3.0,92,0.02,,,0.13,0,weatherlink.com 1.10,2013-01-26 14:27:00,
2013-01-26 07:42:00,57.2,55.0,29.93,NNE,14,1.0,4.0,92,0.03,,,0.14,0,weatherlink.com 1.10,2013-01-26 14:42:00,
2013-01-26 07:58:00,57.1,55.0,29.93,NNE,14,2.0,3.0,92,0.02,,,0.14,14,weatherlink.com 1.10,2013-01-26 14:58:00,
2013-01-26 08:13:00,57.3,55.0,29.92,NNW,338,1.0,3.0,92,0.02,,,0.15,18,weatherlink.com 1.10,2013-01-26 15:13:00,
2013-01-26 08:28:00,57.7,56.0,29.93,NNW,338,0.0,0.0,93,0.02,,,0.15,54,weatherlink.com 1.10,2013-01-26 15:28:00,
2013-01-26 08:58:00,58.1,56.0,29.93,NNW,340,0.0,2.0,92,0.02,,,0.16,60,weatherlink.com 1.10,2013-01-26 15:58:00,
2013-01-26 09:13:00,58.6,57.0,29.93,ESE,102,0.0,3.0,93,0.01,,,0.16,72,weatherlink.com 1.10,2013-01-26 16:13:00,
2013-01-26 09:28:00,59.2,56.0,29.93,East,101,2.0,5.0,90,0.01,,,0.16,79,weatherlink.com 1.10,2013-01-26 16:28:00,
2013-01-26 09:43:00,60.5,55.0,29.93,ESE,103,0.0,1.0,83,0.02,,,0.17,84,weatherlink.com 1.10,2013-01-26 16:43:00,
2013-01-26 09:58:00,61.9,57.0,29.93,ESE,102,0.0,1.0,83,0.01,,,0.17,272,weatherlink.com 1.10,2013-01-26 16:58:00,
2013-01-26 10:13:00,63.3,56.0,29.92,ESE,102,1.0,3.0,78,0.01,,,0.17,209,weatherlink.com 1.10,2013-01-26 17:13:00,
2013-01-26 10:28:00,63.5,56.0,29.92,ESE,103,2.0,6.0,77,0.02,,,0.18,51,weatherlink.com 1.10,2013-01-26 17:28:00,
2013-01-26 10:43:00,59.1,55.0,29.97,WNW,283,6.0,26.0,86,0.01,,,0.18,54,weatherlink.com 1.10,2013-01-26 17:43:00,
2013-01-26 11:13:00,55.7,54.0,29.98,NW,308,4.0,5.0,93,0.03,,,0.20,53,weatherlink.com 1.10,2013-01-26 18:13:00,
2013-01-26 11:28:00,55.7,54.0,29.98,NW,308,1.0,3.0,94,0.02,,,0.20,54,weatherlink.com 1.10,2013-01-26 18:28:00,
2013-01-26 11:43:00,56.2,55.0,29.98,NW,308,0.0,0.0,95,0.03,,,0.21,118,weatherlink.com 1.10,2013-01-26 18:43:00,
2013-01-26 11:58:00,56.6,55.0,29.97,NW,308,0.0,0.0,95,0.02,,,0.21,190,weatherlink.com 1.10,2013-01-26 18:58:00,
2013-01-26 12:13:00,57.4,56.0,29.96,NW,308,0.0,0.0,95,0.02,,,0.22,162,weatherlink.com 1.10,2013-01-26 19:13:00,
2013-01-26 12:28:00,58.1,57.0,29.96,NW,308,0.0,2.0,95,0.02,,,0.22,360,weatherlink.com 1.10,2013-01-26 19:28:00,
2013-01-26 12:43:00,59.7,58.0,29.95,NW,306,1.0,4.0,95,0.28,,,0.49,290,weatherlink.com 1.10,2013-01-26 19:43:00,
2013-01-26 12:58:00,60.8,57.0,29.95,North,355,1.0,7.0,86,0.28,,,0.49,388,weatherlink.com 1.10,2013-01-26 19:58:00,
2013-01-26 13:13:00,61.4,56.0,29.94,NNW,329,2.0,5.0,81,0.27,,,0.49,169,weatherlink.com 1.10,2013-01-26 20:13:00,
2013-01-26 13:29:00,63.4,58.0,29.93,NW,313,2.0,4.0,82,0.27,,,0.49,795,weatherlink.com 1.10,2013-01-26 20:29:00,
2013-01-26 13:43:00,64.1,56.0,29.93,WNW,294,3.0,10.0,76,0.00,,,0.49,248,weatherlink.com 1.10,2013-01-26 20:43:00,
2013-01-26 13:59:00,65.9,56.0,29.92,WNW,285,4.0,6.0,71,0.00,,,0.49,745,weatherlink.com 1.10,2013-01-26 20:59:00,
2013-01-26 14:13:00,66.2,56.0,29.92,WSW,243,2.0,8.0,70,0.00,,,0.49,151,weatherlink.com 1.10,2013-01-26 21:13:00,
2013-01-26 14:29:00,65.3,55.0,29.92,NNW,329,4.0,7.0,69,0.00,,,0.49,735,weatherlink.com 1.10,2013-01-26 21:29:00,
2013-01-26 14:43:00,67.1,53.0,29.91,West,263,8.0,15.0,60,0.00,,,0.49,619,weatherlink.com 1.10,2013-01-26 21:43:00,
2013-01-26 14:58:00,69.2,51.0,29.91,NW,307,12.0,15.0,53,0.00,,,0.49,587,weatherlink.com 1.10,2013-01-26 21:58:00,
2013-01-26 15:14:00,68.7,50.0,29.92,WNW,295,12.0,13.0,52,0.00,,,0.49,125,weatherlink.com 1.10,2013-01-26 22:14:00,
2013-01-26 15:28:00,67.4,50.0,29.91,WSW,257,7.0,10.0,54,0.00,,,0.49,185,weatherlink.com 1.10,2013-01-26 22:28:00,
2013-01-26 15:43:00,68.1,49.0,29.92,NW,309,7.0,12.0,51,0.00,,,0.49,167,weatherlink.com 1.10,2013-01-26 22:43:00,
2013-01-26 15:59:00,68.4,49.0,29.92,NNW,329,7.0,14.0,50,0.00,,,0.49,142,weatherlink.com 1.10,2013-01-26 22:59:00,
2013-01-26 16:14:00,67.9,48.0,29.92,NW,310,9.0,12.0,49,0.00,,,0.49,380,weatherlink.com 1.10,2013-01-26 23:14:00,
2013-01-26 16:29:00,68.1,47.0,29.92,NW,321,8.0,15.0,47,0.00,,,0.49,116,weatherlink.com 1.10,2013-01-26 23:29:00,
2013-01-26 16:44:00,66.3,47.0,29.93,West,269,5.0,13.0,50,0.00,,,0.49,47,weatherlink.com 1.10,2013-01-26 23:44:00,
2013-01-26 16:58:00,65.2,46.0,29.93,WNW,298,6.0,13.0,51,0.00,,,0.49,39,weatherlink.com 1.10,2013-01-26 23:58:00,
2013-01-26 17:14:00,64.7,46.0,29.93,NNW,335,3.0,13.0,52,0.00,,,0.49,33,weatherlink.com 1.10,2013-01-27 00:14:00,
2013-01-26 17:29:00,64.9,46.0,29.93,WNW,296,9.0,12.0,51,0.00,,,0.49,30,weatherlink.com 1.10,2013-01-27 00:29:00,
2013-01-26 17:44:00,64.7,47.0,29.94,WNW,298,4.0,9.0,54,0.00,,,0.49,9,weatherlink.com 1.10,2013-01-27 00:44:00,
2013-01-26 17:59:00,63.6,49.0,29.94,NW,304,4.0,6.0,59,0.00,,,0.49,0,weatherlink.com 1.10,2013-01-27 00:59:00,
2013-01-26 18:14:00,62.4,49.0,29.95,NNW,339,3.0,10.0,62,0.00,,,0.49,0,weatherlink.com 1.10,2013-01-27 01:14:00,
2013-01-26 18:29:00,61.3,49.0,29.95,NNW,336,3.0,3.0,65,0.00,,,0.49,0,weatherlink.com 1.10,2013-01-27 01:29:00,
2013-01-26 18:44:00,60.0,49.0,29.96,NNW,336,1.0,2.0,68,0.00,,,0.49,0,weatherlink.com 1.10,2013-01-27 01:44:00,
2013-01-26 18:59:00,58.7,49.0,29.96,NNW,336,0.0,3.0,71,0.00,,,0.49,0,weatherlink.com 1.10,2013-01-27 01:59:00,
2013-01-26 19:14:00,57.7,49.0,29.97,NNW,336,1.0,2.0,74,0.00,,,0.49,0,weatherlink.com 1.10,2013-01-27 02:14:00,
2013-01-26 19:29:00,56.9,49.0,29.97,NNW,336,0.0,2.0,76,0.00,,,0.49,0,weatherlink.com 1.10,2013-01-27 02:29:00,
2013-01-26 19:44:00,56.3,50.0,29.98,NNW,336,0.0,4.0,78,0.00,,,0.49,0,weatherlink.com 1.10,2013-01-27 02:44:00,
2013-01-26 19:59:00,55.8,50.0,29.98,NNW,336,1.0,1.0,80,0.00,,,0.49,0,weatherlink.com 1.10,2013-01-27 02:59:00,
2013-01-26 20:14:00,55.2,50.0,29.98,NNW,336,0.0,1.0,81,0.00,,,0.49,0,weatherlink.com 1.10,2013-01-27 03:14:00,
2013-01-26 20:29:00,54.4,49.0,29.98,NNW,336,1.0,1.0,83,0.00,,,0.49,0,weatherlink.com 1.10,2013-01-27 03:29:00,
2013-01-26 20:44:00,53.6,49.0,29.99,NNW,335,0.0,1.0,85,0.00,,,0.49,0,weatherlink.com 1.10,2013-01-27 03:44:00,
2013-01-26 20:59:00,53.2,50.0,29.99,NNW,336,0.0,1.0,87,0.00,,,0.49,0,weatherlink.com 1.10,2013-01-27 03:59:00,
2013-01-26 21:14:00,52.9,50.0,30.00,NNW,336,0.0,1.0,88,0.00,,,0.49,0,weatherlink.com 1.10,2013-01-27 04:14:00,
2013-01-26 21:29:00,52.6,49.0,30.00,NNW,335,0.0,1.0,88,0.00,,,0.49,0,weatherlink.com 1.10,2013-01-27 04:29:00,
2013-01-26 21:44:00,52.5,50.0,30.01,NNW,336,0.0,1.0,90,0.00,,,0.49,0,weatherlink.com 1.10,2013-01-27 04:44:00,
2013-01-26 21:59:00,52.4,50.0,30.01,NNW,336,0.0,2.0,90,0.00,,,0.49,0,weatherlink.com 1.10,2013-01-27 04:59:00,
2013-01-26 22:14:00,52.4,50.0,30.02,NNW,336,0.0,1.0,91,0.00,,,0.49,0,weatherlink.com 1.10,2013-01-27 05:14:00,
2013-01-26 22:29:00,52.3,50.0,30.02,NNW,336,0.0,0.0,91,0.00,,,0.49,0,weatherlink.com 1.10,2013-01-27 05:29:00,
2013-01-26 22:44:00,52.3,50.0,30.02,NNW,336,0.0,1.0,92,0.00,,,0.49,0,weatherlink.com 1.10,2013-01-27 05:44:00,
2013-01-26 22:59:00,52.3,50.0,30.02,NNW,336,0.0,1.0,92,0.00,,,0.49,0,weatherlink.com 1.10,2013-01-27 05:59:00,
2013-01-26 23:14:00,52.2,50.0,30.02,North,5,0.0,2.0,92,0.00,,,0.49,0,weatherlink.com 1.10,2013-01-27 06:14:00,
2013-01-26 23:29:00,52.3,50.0,30.02,North,5,0.0,1.0,93,0.00,,,0.49,0,weatherlink.com 1.10,2013-01-27 06:29:00,
2013-01-26 23:44:00,52.5,51.0,30.02,North,5,0.0,0.0,93,0.00,,,0.49,0,weatherlink.com 1.10,2013-01-27 06:44:00,
2013-01-26 23:59:00,52.7,51.0,30.03,North,5,0.0,0.0,93,0.00,,,0.00,0,weatherlink.com 1.10,2013-01-27 06:59:00,